GW6272 Weather Reports


time (UTC)temp
C
wind
direction
speed
KPH
gust
KPH
rain 1hr
cm
rain 24hr
cm
rain mn
cm
humidity
%
barometer
mb
20260507060139 10 339 0.0 0.0 0.00 0.00 0.00 87 1010.7
20260507055635 10 339 0.0 0.0 0.00 0.00 0.00 87 1010.7
20260507055131 10 339 0.0 0.0 0.00 0.00 0.00 87 1010.7
20260507050126 10 330 0.0 0.0 0.00 0.00 0.00 88 1010.4
20260507045623 10 330 0.0 0.0 0.00 0.00 0.00 88 1010.4
20260507045119 10 330 0.0 0.0 0.00 0.00 0.00 88 1010.4
20260507042620 10 349 0.0 0.0 0.00 0.00 0.00 88 1010.4
20260507042115 10 349 0.0 0.0 0.00 0.00 0.00 88 1010.4
20260507041612 10 349 0.0 0.0 0.00 0.00 0.00 88 1010.4
20260507040120 10 42 1.6 1.6 0.00 0.79 0.79 85 1010.7
20260507035616 10 42 1.6 1.6 0.00 0.79 0.79 85 1010.7
20260507035112 10 42 1.6 1.6 0.00 0.79 0.79 85 1010.7
20260507034609 10 350 0.0 0.0 0.00 0.79 0.79 84 1010.9
20260507032605 10 39 0.0 1.6 0.00 0.79 0.79 82 1010.5
20260507032101 10 39 0.0 1.6 0.00 0.79 0.79 82 1010.5
20260507031557 10 39 0.0 1.6 0.00 0.79 0.79 82 1010.5
20260507030101 10 48 1.6 3.2 0.00 0.79 0.79 82 1010.4
20260507025558 10 48 1.6 3.2 0.00 0.79 0.79 82 1010.4
20260507025054 10 48 1.6 3.2 0.00 0.79 0.79 82 1010.4
20260507022557 11 45 0.0 1.6 0.00 0.79 0.79 81 1011.1
20260507022052 11 45 0.0 1.6 0.00 0.79 0.79 81 1011.1
20260507021548 11 45 0.0 1.6 0.00 0.79 0.79 81 1011.1
20260507020045 11 36 0.0 1.6 0.00 0.79 0.79 81 1011.3
20260507015543 11 36 0.0 1.6 0.00 0.79 0.79 81 1011.3
20260507015041 11 36 0.0 1.6 0.00 0.79 0.79 81 1011.3
20260507012542 11 31 3.2 4.8 0.00 0.79 0.79 81 1011.3
20260507012037 11 31 3.2 4.8 0.00 0.79 0.79 81 1011.3
20260507011535 11 31 3.2 4.8 0.00 0.79 0.79 81 1011.3
20260507010034 11 61 1.6 3.2 0.00 0.79 0.79 83 1010.6
20260507005532 11 61 1.6 3.2 0.00 0.79 0.79 83 1010.6
20260507005028 11 61 1.6 3.2 0.00 0.79 0.79 83 1010.6
20260507002534 11 17 1.6 1.6 0.00 0.79 0.79 81 1010.0
20260507002030 11 17 1.6 1.6 0.00 0.79 0.79 81 1010.0
20260507001526 11 17 1.6 1.6 0.00 0.79 0.79 81 1010.0
20260507000028 12 11 3.2 3.2 0.00 0.79 0.79 81 1009.5
20260506235525 12 11 3.2 3.2 0.00 0.79 0.79 81 1009.5
20260506235021 12 11 3.2 3.2 0.00 0.79 0.79 81 1009.5
20260506234518 12 64 1.6 9.7 0.00 0.79 0.79 80 1009.5
20260506232018 13 73 1.6 1.6 0.00 0.79 0.79 81 1008.9
20260506231516 13 73 1.6 1.6 0.00 0.79 0.79 81 1008.9
20260506231014 13 73 1.6 1.6 0.00 0.79 0.79 81 1008.9
20260506230014 13 235 4.8 4.8 0.00 0.79 0.79 79 1008.5
20260506225510 13 235 4.8 4.8 0.00 0.79 0.79 79 1008.5
20260506225006 13 235 4.8 4.8 0.00 0.79 0.79 79 1008.5
20260506222002 17 13 4.8 9.7 0.00 0.79 0.79 78 1007.0
20260506221459 17 13 4.8 9.7 0.00 0.79 0.79 78 1007.0
20260506220957 17 13 4.8 9.7 0.00 0.79 0.79 78 1007.0
20260506220000 18 131 4.8 9.7 0.00 0.79 0.79 81 1006.4
20260506215456 18 131 4.8 9.7 0.00 0.79 0.79 81 1006.4
20260506214952 18 131 4.8 9.7 0.00 0.79 0.79 81 1006.4
20260506211954 18 357 3.2 4.8 0.00 0.79 0.79 81 1005.9
20260506211451 18 357 3.2 4.8 0.00 0.79 0.79 81 1005.9
20260506210948 18 357 3.2 4.8 0.00 0.79 0.79 81 1005.9
20260506205953 19 355 1.6 3.2 0.00 0.79 0.79 80 1005.6
20260506205449 19 355 1.6 3.2 0.00 0.79 0.79 80 1005.6
20260506204945 19 355 1.6 3.2 0.00 0.79 0.79 80 1005.6
20260506201952 18 342 0.0 1.6 0.00 0.79 0.79 84 1005.6
20260506201450 18 342 0.0 1.6 0.00 0.79 0.79 84 1005.6
20260506200946 18 342 0.0 1.6 0.00 0.79 0.79 84 1005.6
20260506200442 18 342 3.2 12.9 0.00 0.79 0.79 81 1005.8
20260506195939 18 70 3.2 6.4 0.00 0.79 0.79 83 1005.5
20260506195436 18 70 3.2 6.4 0.00 0.79 0.79 83 1005.5
20260506194932 18 70 3.2 6.4 0.00 0.79 0.79 83 1005.5
20260506185925 18 226 1.6 3.2 0.00 0.79 0.79 86 1005.7
20260506185422 18 226 1.6 3.2 0.00 0.79 0.79 86 1005.7
20260506184918 18 226 1.6 3.2 0.00 0.79 0.79 86 1005.7
20260506175911 16 329 0.0 0.0 0.00 0.79 0.79 94 1006.6
20260506175408 16 329 0.0 0.0 0.00 0.79 0.79 94 1006.6
20260506174904 16 329 0.0 0.0 0.00 0.79 0.79 94 1006.6
20260506171408 15 331 0.0 1.6 0.18 0.74 0.74 93 1006.6
20260506170906 15 331 0.0 1.6 0.18 0.74 0.74 93 1006.6
20260506170402 15 331 0.0 1.6 0.18 0.74 0.74 93 1006.6
20260506165901 15 349 0.0 0.0 0.00 0.71 0.71 93 1006.7
20260506165359 15 349 0.0 0.0 0.00 0.71 0.71 93 1006.7
20260506164854 15 349 0.0 0.0 0.00 0.71 0.71 93 1006.7
20260506161349 15 331 0.0 1.6 0.18 0.71 0.71 92 1006.5
20260506160847 15 331 0.0 1.6 0.18 0.71 0.71 92 1006.5
20260506160343 15 331 0.0 1.6 0.18 0.71 0.71 92 1006.5
20260506151347 15 127 1.6 3.2 0.18 0.56 0.56 90 1007.0
20260506150844 15 127 1.6 3.2 0.18 0.56 0.56 90 1007.0
20260506150341 15 127 1.6 3.2 0.18 0.56 0.56 90 1007.0
20260506145837 16 357 0.0 1.6 0.13 0.48 0.48 90 1006.9
20260506145334 16 357 0.0 1.6 0.13 0.48 0.48 90 1006.9
20260506144831 16 357 0.0 1.6 0.13 0.48 0.48 90 1006.9
20260506141333 15 332 0.0 1.6 0.30 0.33 0.33 91 1006.9
20260506140830 15 332 0.0 1.6 0.30 0.33 0.33 91 1006.9
20260506140327 15 332 0.0 1.6 0.30 0.33 0.33 91 1006.9
20260506135824 15 252 0.0 1.6 0.18 0.28 0.28 91 1007.1
20260506135320 15 252 0.0 1.6 0.18 0.28 0.28 91 1007.1
20260506134817 15 333 0.0 1.6 0.13 0.25 0.25 90 1007.0
20260506131318 15 338 0.0 1.6 0.13 0.15 0.15 87 1007.4
20260506130816 15 338 0.0 1.6 0.13 0.15 0.15 87 1007.4
20260506130312 15 338 0.0 1.6 0.13 0.15 0.15 87 1007.4
20260506125810 15 351 0.0 3.2 0.18 0.13 0.13 87 1007.6
20260506125308 15 351 0.0 3.2 0.18 0.13 0.13 87 1007.6
20260506124806 16 319 0.0 1.6 0.18 0.10 0.10 85 1007.4
20260506121305 17 264 3.2 3.2 0.13 0.03 0.03 72 1007.2
20260506120802 17 264 3.2 3.2 0.13 0.03 0.03 72 1007.2
20260506120300 18 147 0.0 4.8 0.00 0.00 0.00 69 1007.1
20260506115757 18 147 0.0 4.8 0.00 0.00 0.00 69 1007.1
20260506115255 18 147 0.0 4.8 0.00 0.00 0.00 69 1007.1
20260506110252 18 38 0.0 1.6 0.00 0.00 0.00 60 1006.6
20260506105749 18 38 0.0 1.6 0.00 0.00 0.00 60 1006.6
20260506105245 18 38 0.0 1.6 0.00 0.00 0.00 60 1006.6
20260506103743 19 337 1.6 3.2 0.00 0.00 0.00 56 1006.1
20260506103241 19 337 1.6 3.2 0.00 0.00 0.00 56 1006.1
20260506102738 19 337 1.6 3.2 0.00 0.00 0.00 56 1006.1
20260506102236 20 78 1.6 3.2 0.00 0.00 0.00 56 1006.3
20260506100237 20 326 0.0 4.8 0.00 0.00 0.00 54 1006.2
20260506095735 20 326 0.0 4.8 0.00 0.00 0.00 54 1006.2
20260506095231 20 326 0.0 4.8 0.00 0.00 0.00 54 1006.2
20260506090229 18 355 0.0 0.0 0.00 0.00 0.00 55 1006.0
20260506085726 18 355 0.0 0.0 0.00 0.00 0.00 55 1006.0
20260506085223 18 355 0.0 0.0 0.00 0.00 0.00 55 1006.0
20260506084719 18 14 0.0 1.6 0.00 0.00 0.00 55 1006.3
20260506080215 18 321 1.6 4.8 0.00 0.00 0.00 53 1006.4
20260506071709 18 351 0.0 1.6 0.00 0.00 0.00 51 1006.4
20260506071207 18 351 0.0 1.6 0.00 0.00 0.00 51 1006.4
20260506070703 18 351 0.0 1.6 0.00 0.00 0.00 51 1006.4
20260506070201 18 329 1.6 4.8 0.00 0.00 0.00 50 1006.9
20260506061656 17 359 0.0 0.0 0.00 0.00 0.00 53 1006.9
20260506061154 17 359 0.0 0.0 0.00 0.00 0.00 53 1006.9